Tracking 29042 objects as of 22-Jun-2024
HD Live streaming from Space Station
objects crossing your sky now

STARLINK-31816

Track STARLINK-31816 now!
10-day predictions
STARLINK-31816 is classified as:


NORAD ID: 59742
Int'l Code: 2024-090N
Perigee: 450.4 km
Apogee: 452.0 km
Inclination: 43.0 °
Period: 93.5 minutes
Semi major axis: 6822 km
RCS: Unknown
Launch date: May 13, 2024
Source: United States (US)
Launch site: AIR FORCE EASTERN TEST RANGE (AFETR)
Your satellite tracking list
Your tracking list is empty




NASA's NSSDC Master Catalog

Two Line Element Set (TLE):
1 59742U 24090N   24173.32401438  .00003671  00000-0  95104-4 0  9994
2 59742  42.9988 147.8496 0001187 241.9264 118.1472 15.40696992  7319
Source of the keplerian elements: AFSPC